GW4285 Weather Reports


Display with metric or nautical units.
time (UTC)temp
F
wind
direction
speed
MPH
gust
MPH
rain 1hr
in
rain 24hr
in
rain mn
in
humidity
%
barometer
mb
20260906163434 55 223 0.0 0.0 0.00 0.00 0.00 96 1015.5
20260906162932 55 222 0.0 0.0 0.00 0.00 0.00 97 1015.6
20260906162425 55 221 0.0 0.0 0.00 0.00 0.00 98 1015.4
20260906161920 54 220 0.0 0.0 0.00 0.00 0.00 99 1015.4
20260906161419 54 220 0.0 0.0 0.00 0.00 0.00 99 1015.6
20260906160918 53 220 0.0 0.0 0.00 0.00 0.00 99 1015.5
20260906160407 53 218 0.0 0.0 0.00 0.00 0.00 99 1015.6
20260906155905 53 219 0.0 0.0 0.00 0.00 0.00 99 1015.6
20260906155359 53 219 0.0 0.0 0.00 0.00 0.00 99 1015.6
20260906154856 53 219 0.0 0.0 0.00 0.00 0.00 99 1015.6
20260906154354 53 219 0.0 0.0 0.00 0.00 0.00 99 1015.6
20260906153854 52 219 0.0 0.0 0.00 0.00 0.00 99 1015.5
20260906153353 52 219 0.0 0.0 0.00 0.00 0.00 99 1015.5
20260906152849 52 218 0.0 0.0 0.00 0.00 0.00 99 1015.4
20260906152348 52 218 0.0 0.0 0.00 0.00 0.00 99 1015.4
20260906151848 52 217 0.0 0.0 0.00 0.00 0.00 99 1015.5
20260906151343 52 216 0.0 0.0 0.00 0.00 0.00 99 1015.4
20260906150839 52 215 0.0 0.0 0.00 0.00 0.00 99 1015.5
20260906150335 52 218 0.0 0.0 0.00 0.00 0.00 99 1015.5
20260906145834 52 218 0.0 0.0 0.00 0.00 0.00 99 1015.3
20260906145333 51 219 0.0 0.0 0.00 0.00 0.00 99 1015.3
20260906144828 51 218 0.0 0.0 0.00 0.00 0.00 99 1015.3
20260906144323 51 210 0.0 0.0 0.00 0.00 0.00 99 1015.3
20260906143822 52 210 0.0 0.0 0.00 0.00 0.00 99 1015.1
20260906143319 51 210 0.0 0.0 0.00 0.00 0.00 99 1015.2
20260906142814 51 211 0.0 0.0 0.00 0.00 0.00 99 1015.2
20260906142309 51 208 0.0 0.0 0.00 0.00 0.00 99 1015.1
20260906141808 51 207 0.0 0.0 0.00 0.00 0.00 99 1015.1
20260906141303 51 207 0.0 0.0 0.00 0.00 0.00 99 1015.0
20260906140801 51 205 0.0 0.0 0.00 0.00 0.00 99 1014.9
20260906140257 51 204 0.0 0.0 0.00 0.00 0.00 99 1014.8
20260906135754 51 125 0.0 0.0 0.00 0.00 0.00 99 1014.7
20260906135249 51 125 0.0 0.0 0.00 0.00 0.00 99 1014.8
20260906134745 51 125 0.0 0.0 0.00 0.00 0.00 99 1014.6
20260906134240 51 125 0.0 0.0 0.00 0.00 0.00 99 1014.7
20260906133736 51 125 0.0 0.0 0.00 0.00 0.00 99 1014.6
20260906133231 51 125 0.0 0.0 0.00 0.00 0.00 99 1014.6
20260906132726 50 125 0.0 0.0 0.00 0.00 0.00 99 1014.5
20260906132222 51 125 0.0 0.0 0.00 0.00 0.00 99 1014.5
20260906131717 50 125 0.0 0.0 0.00 0.00 0.00 99 1014.3
20260906131212 51 125 0.0 0.0 0.00 0.00 0.00 99 1014.4
20260906130708 51 125 0.0 0.0 0.00 0.00 0.00 99 1014.4
20260906130203 51 125 0.0 0.0 0.00 0.00 0.00 99 1014.3
20260906125701 51 125 0.0 0.0 0.00 0.00 0.00 99 1014.2
20260906125159 51 125 0.0 0.0 0.00 0.00 0.00 99 1014.4
20260906124655 51 126 0.0 0.0 0.00 0.00 0.00 99 1014.3
20260906124150 51 126 0.0 0.0 0.00 0.00 0.00 99 1014.2
20260906123649 51 126 0.0 0.0 0.00 0.00 0.00 99 1014.3
20260906123145 51 126 0.0 0.0 0.00 0.00 0.00 99 1014.3
20260906122643 51 126 0.0 0.0 0.00 0.00 0.00 99 1014.2
20260906122139 51 126 0.0 0.0 0.00 0.00 0.00 99 1014.1
20260906121635 51 126 0.0 0.0 0.00 0.00 0.00 99 1014.1
20260906121132 52 126 0.0 0.0 0.00 0.00 0.00 99 1014.1
20260906120627 52 126 0.0 0.0 0.00 0.00 0.00 99 1014.2
20260906120124 51 126 0.0 0.0 0.00 0.00 0.00 99 1014.2
20260906115618 51 126 0.0 0.0 0.00 0.00 0.00 99 1014.3
20260906115114 51 126 0.0 0.0 0.00 0.00 0.00 99 1014.2
20260906114608 52 126 0.0 0.0 0.00 0.00 0.00 99 1014.3
20260906114103 52 126 0.0 0.0 0.00 0.00 0.00 99 1014.2
20260906113602 52 126 0.0 0.0 0.00 0.00 0.00 99 1014.3
20260906113057 52 126 0.0 0.0 0.00 0.00 0.00 99 1014.2
20260906112551 52 126 0.0 0.0 0.00 0.00 0.00 99 1014.3
20260906112048 52 126 0.0 0.0 0.00 0.00 0.00 99 1014.1
20260906111547 52 126 0.0 0.0 0.00 0.00 0.00 99 1014.1
20260906111043 52 126 0.0 0.0 0.00 0.00 0.00 99 1014.1
20260906110542 52 126 0.0 0.0 0.00 0.00 0.00 99 1014.2
20260906110042 52 126 0.0 0.0 0.00 0.00 0.00 99 1014.1
20260906105537 53 126 0.0 0.0 0.00 0.00 0.00 99 1014.2
20260906105033 52 126 0.0 0.0 0.00 0.00 0.00 99 1014.1
20260906104531 52 193 0.0 0.0 0.00 0.00 0.00 99 1014.0
20260906104026 52 194 0.0 0.0 0.00 0.00 0.00 99 1014.0
20260906103524 52 194 0.0 0.0 0.00 0.00 0.00 99 1014.0
20260906103020 52 194 0.0 0.0 0.00 0.00 0.00 99 1014.2
20260906102520 52 195 0.0 0.0 0.00 0.00 0.00 99 1014.1
20260906102015 52 195 0.0 0.0 0.00 0.00 0.00 99 1014.2
20260906101509 52 195 0.0 0.0 0.00 0.00 0.00 99 1014.1
20260906101005 53 195 0.0 0.0 0.00 0.00 0.00 99 1014.1
20260906100500 53 195 0.0 0.0 0.00 0.00 0.00 99 1014.1
20260906095959 53 195 0.0 0.0 0.00 0.00 0.00 99 1014.1
20260906095455 53 195 0.0 0.0 0.00 0.00 0.00 99 1014.1
20260906094950 53 195 0.0 0.0 0.00 0.00 0.00 99 1014.2
20260906094449 53 195 0.0 0.0 0.00 0.00 0.00 99 1014.2
20260906093946 53 195 0.0 0.0 0.00 0.00 0.00 99 1014.2
20260906093442 53 195 0.0 0.0 0.00 0.00 0.00 99 1014.3
20260906092941 53 195 0.0 0.0 0.00 0.00 0.00 99 1014.2
20260906092436 53 195 0.0 0.0 0.00 0.00 0.00 99 1014.2
20260906091931 53 195 0.0 0.0 0.00 0.00 0.00 99 1014.3
20260906091427 53 195 0.0 0.0 0.00 0.00 0.00 99 1014.2
20260906090923 53 195 0.0 0.0 0.00 0.00 0.00 99 1014.3
20260906090418 53 195 0.0 0.0 0.00 0.00 0.00 99 1014.3
20260906085918 53 195 0.0 0.0 0.00 0.00 0.00 99 1014.4
20260906085412 53 195 0.0 0.0 0.00 0.00 0.00 99 1014.4
20260906084911 53 195 0.0 0.0 0.00 0.00 0.00 99 1014.4
20260906084406 53 195 0.0 0.0 0.00 0.00 0.00 99 1014.3
20260906083905 53 196 0.0 0.0 0.00 0.00 0.00 99 1014.2
20260906083401 54 196 0.0 0.0 0.00 0.00 0.00 99 1014.4
20260906082901 53 194 0.0 0.0 0.00 0.00 0.00 99 1014.6
20260906082400 53 194 0.0 0.0 0.00 0.00 0.00 99 1014.4
20260906081857 53 195 0.0 0.0 0.00 0.00 0.00 99 1014.6
20260906081352 53 195 0.0 0.0 0.00 0.00 0.00 99 1014.5
20260906080848 54 196 0.0 0.0 0.00 0.00 0.00 99 1014.5
20260906080344 53 196 0.0 0.0 0.00 0.00 0.00 99 1014.5
20260906075843 54 196 0.0 0.0 0.00 0.00 0.00 99 1014.5
20260906075338 53 197 0.0 0.0 0.00 0.00 0.00 99 1014.4
20260906074834 54 198 0.0 0.0 0.00 0.00 0.00 99 1014.5
20260906074333 54 198 0.0 0.0 0.00 0.00 0.00 99 1014.4
20260906073832 54 198 0.0 0.0 0.00 0.00 0.00 99 1014.4
20260906073327 54 200 0.0 0.0 0.00 0.00 0.00 98 1014.4
20260906072824 54 200 0.0 0.0 0.00 0.00 0.00 98 1014.4
20260906072319 54 197 0.0 0.0 0.00 0.00 0.00 98 1014.5
20260906071815 54 200 0.0 0.0 0.00 0.00 0.00 98 1014.5
20260906071310 54 189 0.0 0.0 0.00 0.00 0.00 98 1014.4
20260906070807 54 113 0.0 0.0 0.00 0.00 0.00 98 1014.5
20260906070302 54 112 0.0 0.0 0.00 0.00 0.00 98 1014.5
20260906065801 54 195 0.0 0.0 0.00 0.00 0.00 98 1014.5
20260906065257 55 195 0.0 0.0 0.00 0.00 0.00 98 1014.6
20260906064752 54 303 0.0 0.0 0.00 0.00 0.00 98 1014.8
20260906064248 54 310 0.0 0.0 0.00 0.00 0.00 98 1014.7
20260906063743 54 313 0.0 0.0 0.00 0.00 0.00 98 1014.7
20260906063238 54 314 0.0 0.0 0.00 0.00 0.00 97 1014.6
20260906062733 54 314 0.0 0.0 0.00 0.00 0.00 97 1014.6
20260906062233 54 314 0.0 0.0 0.00 0.00 0.00 97 1014.6
20260906061729 54 314 0.0 0.0 0.00 0.00 0.00 97 1014.6
20260906061225 54 313 0.0 0.0 0.00 0.00 0.00 97 1014.6
20260906060720 54 313 0.0 0.0 0.00 0.00 0.00 97 1014.7
20260906060218 54 313 0.0 0.0 0.00 0.00 0.00 97 1014.6
20260906055713 54 313 0.0 0.0 0.00 0.00 0.00 97 1014.6
20260906055208 54 312 0.0 0.0 0.00 0.00 0.00 96 1014.5
20260906054703 55 312 0.0 0.0 0.00 0.00 0.00 96 1014.5
20260906054158 55 312 0.0 0.0 0.00 0.00 0.00 96 1014.4
20260906053654 55 312 0.0 0.0 0.00 0.00 0.00 96 1014.5
20260906053149 55 297 0.0 0.0 0.00 0.00 0.00 96 1014.5
20260906052644 55 285 0.0 0.0 0.00 0.00 0.00 96 1014.6
20260906052141 55 295 0.0 0.0 0.00 0.00 0.00 95 1014.7
20260906051637 55 312 0.0 0.0 0.00 0.00 0.00 95 1014.6
20260906051137 55 297 0.0 0.0 0.00 0.00 0.00 95 1014.6
20260906050632 55 298 0.0 0.0 0.00 0.00 0.00 95 1014.5
20260906050127 55 298 0.0 0.0 0.00 0.00 0.00 94 1014.6
20260906045626 55 274 0.0 0.0 0.00 0.00 0.00 94 1014.6
20260906045121 56 273 0.0 0.0 0.00 0.00 0.00 94 1014.5
20260906044617 56 273 0.0 0.0 0.00 0.00 0.00 94 1014.7
20260906044112 56 293 0.0 0.0 0.00 0.00 0.00 94 1014.5
20260906043609 56 251 0.0 0.0 0.00 0.00 0.00 93 1014.6
20260906043104 56 322 0.0 0.0 0.00 0.00 0.00 93 1014.5
20260906042603 56 281 0.0 0.0 0.00 0.00 0.00 92 1014.5
20260906042057 57 281 0.0 0.0 0.00 0.00 0.00 92 1014.7
20260906041555 57 275 0.0 0.0 0.00 0.00 0.00 91 1014.5
20260906041049 57 290 0.0 0.0 0.00 0.00 0.00 91 1014.5
20260906040544 57 281 0.0 0.0 0.00 0.00 0.00 90 1014.5
20260906040040 57 281 0.0 0.0 0.00 0.00 0.00 90 1014.4
20260906035534 57 281 0.0 0.0 0.00 0.00 0.00 90 1014.4
20260906035030 58 281 0.0 0.0 0.00 0.00 0.00 89 1014.5
20260906034530 58 278 0.0 0.0 0.00 0.00 0.00 89 1014.5
20260906034020 58 245 0.0 0.0 0.00 0.00 0.00 88 1014.4
20260906033520 58 245 0.0 0.0 0.00 0.00 0.00 87 1014.5
20260906033016 58 252 0.0 0.0 0.00 0.00 0.00 86 1014.4
20260906032513 59 251 0.0 0.0 0.00 0.00 0.00 84 1014.2
20260906032012 59 252 0.0 0.0 0.00 0.00 0.00 83 1014.3
20260906031502 59 251 0.0 0.0 0.00 0.00 0.00 83 1014.3
20260906030957 60 252 0.0 0.0 0.00 0.00 0.00 82 1014.4
20260906030452 60 247 0.0 0.0 0.00 0.00 0.00 81 1014.4
20260906025946 60 199 0.0 1.0 0.00 0.00 0.00 80 1014.5
20260906025445 60 237 0.0 4.0 0.00 0.00 0.00 79 1014.2
20260906024939 61 221 0.0 0.0 0.00 0.00 0.00 77 1014.3
20260906024438 62 247 0.0 0.0 0.00 0.00 0.00 76 1014.4
20260906023933 63 249 0.0 0.0 0.00 0.00 0.00 74 1014.4
20260906023430 64 250 0.0 0.0 0.00 0.00 0.00 71 1014.4
20260906022929 65 247 0.0 0.0 0.00 0.00 0.00 69 1014.4
20260906022425 66 265 0.0 0.0 0.00 0.00 0.00 66 1014.5
20260906021920 66 225 0.0 0.0 0.00 0.00 0.00 65 1014.5
20260906021421 67 263 0.0 1.0 0.00 0.00 0.00 63 1014.5
20260906020920 67 244 0.0 1.0 0.00 0.00 0.00 62 1014.3
20260906020415 68 228 0.0 3.0 0.00 0.00 0.00 62 1014.4
20260906015909 68 249 2.0 5.0 0.00 0.00 0.00 61 1014.4
20260906015408 69 262 1.0 5.0 0.00 0.00 0.00 58 1014.6
20260906014903 68 238 4.0 5.0 0.00 0.00 0.00 59 1014.5
20260906014402 68 224 3.0 5.0 0.00 0.00 0.00 59 1014.5
20260906013859 69 237 1.0 3.0 0.00 0.00 0.00 57 1014.3
20260906013354 70 226 4.0 5.0 0.00 0.00 0.00 53 1014.5
20260906012849 71 242 2.0 7.0 0.00 0.00 0.00 53 1014.5
20260906012338 72 251 1.0 5.0 0.00 0.00 0.00 51 1014.5
20260906011838 72 233 1.0 4.0 0.00 0.00 0.00 50 1014.5
20260906011333 72 245 2.0 5.0 0.00 0.00 0.00 47 1014.5
20260906010829 72 233 0.0 4.0 0.00 0.00 0.00 51 1014.4
20260906010325 72 256 3.0 5.0 0.00 0.00 0.00 51 1014.5
20260906005821 73 275 6.0 7.0 0.00 0.00 0.00 46 1014.6
20260906005320 72 284 4.0 7.0 0.00 0.00 0.00 50 1014.5
20260906004818 72 255 4.0 8.0 0.00 0.00 0.00 48 1014.4
20260906004319 73 276 3.0 10.0 0.00 0.00 0.00 49 1014.4
20260906003814 73 246 3.0 5.0 0.00 0.00 0.00 48 1014.5
20260906003309 71 262 8.0 11.0 0.00 0.00 0.00 49 1014.6
20260906002805 72 250 8.0 12.0 0.00 0.00 0.00 46 1014.5
20260906002306 71 230 8.0 11.0 0.00 0.00 0.00 50 1014.5
20260906001800 74 242 8.0 12.0 0.00 0.00 0.00 48 1014.4
20260906001300 71 248 2.0 7.0 0.00 0.00 0.00 51 1014.4
20260906000755 72 232 11.0 14.0 0.00 0.00 0.00 49 1014.3
20260906000249 74 248 5.0 12.0 0.00 0.00 0.00 48 1014.4
20260905235744 75 240 3.0 8.0 0.00 0.00 0.00 47 1014.3
20260905235244 74 263 2.0 10.0 0.00 0.00 0.00 46 1014.3
20260905234740 73 249 4.0 12.0 0.00 0.00 0.00 47 1014.3
20260905234235 75 270 8.0 11.0 0.00 0.00 0.00 44 1014.3
20260905233730 75 262 3.0 10.0 0.00 0.00 0.00 42 1014.3
20260905233229 76 259 5.0 8.0 0.00 0.00 0.00 43 1014.2
20260905232724 76 264 4.0 12.0 0.00 0.00 0.00 43 1014.2
20260905232220 75 271 3.0 5.0 0.00 0.00 0.00 43 1014.3
20260905231716 72 287 5.0 7.0 0.00 0.00 0.00 46 1014.4
20260905231211 74 239 3.0 10.0 0.00 0.00 0.00 45 1014.4
20260905230707 73 266 1.0 10.0 0.00 0.00 0.00 47 1014.4
20260905230205 73 247 7.0 12.0 0.00 0.00 0.00 48 1014.6
20260905225704 73 228 7.0 12.0 0.00 0.00 0.00 47 1014.6
20260905225159 73 233 6.0 12.0 0.00 0.00 0.00 48 1014.7
20260905224653 74 269 8.0 14.0 0.00 0.00 0.00 47 1014.5
20260905224147 75 271 5.0 12.0 0.00 0.00 0.00 45 1014.9
20260905223644 74 227 7.0 14.0 0.00 0.00 0.00 48 1014.6
20260905223141 75 244 7.0 10.0 0.00 0.00 0.00 46 1014.7
20260905222636 75 243 2.0 10.0 0.00 0.00 0.00 45 1014.7
20260905222126 76 238 5.0 7.0 0.00 0.00 0.00 44 1014.6
20260905221621 78 246 4.0 5.0 0.00 0.00 0.00 43 1014.7
20260905221118 75 275 4.0 14.0 0.00 0.00 0.00 45 1014.9
20260905220613 74 244 3.0 11.0 0.00 0.00 0.00 47 1014.8
20260905220109 74 262 5.0 15.0 0.00 0.00 0.00 46 1014.7
20260905215609 75 265 5.0 11.0 0.00 0.00 0.00 47 1015.0
20260905215105 75 250 10.0 14.0 0.00 0.00 0.00 46 1014.9
20260905214601 75 266 9.0 10.0 0.00 0.00 0.00 45 1014.9
20260905214101 76 247 3.0 11.0 0.00 0.00 0.00 47 1015.0
20260905213600 75 264 5.0 11.0 0.00 0.00 0.00 49 1014.8
20260905213057 74 272 5.0 11.0 0.00 0.00 0.00 48 1014.9
20260905212556 75 243 4.0 10.0 0.00 0.00 0.00 48 1014.9
20260905212056 75 266 8.0 11.0 0.00 0.00 0.00 44 1014.8
20260905211551 74 254 5.0 14.0 0.00 0.00 0.00 47 1015.0
20260905211047 76 256 9.0 19.0 0.00 0.00 0.00 48 1015.0
20260905210543 75 237 9.0 12.0 0.00 0.00 0.00 45 1014.9
20260905210037 77 260 7.0 16.0 0.00 0.00 0.00 45 1014.8
20260905205537 75 267 6.0 14.0 0.00 0.00 0.00 47 1014.8
20260905205036 77 262 7.0 12.0 0.00 0.00 0.00 44 1014.6
20260905204531 77 243 6.0 7.0 0.00 0.00 0.00 45 1014.5
20260905204026 75 277 3.0 4.0 0.00 0.00 0.00 44 1014.6
20260905203526 77 244 3.0 10.0 0.00 0.00 0.00 46 1014.7
20260905203021 78 228 0.0 8.0 0.00 0.00 0.00 46 1014.6
20260905202516 76 275 0.0 5.0 0.00 0.00 0.00 45 1014.6
20260905202012 76 286 5.0 10.0 0.00 0.00 0.00 44 1014.6
20260905201508 75 234 2.0 4.0 0.00 0.00 0.00 46 1014.7
20260905201007 76 262 0.0 0.0 0.00 0.00 0.00 48 1014.6
20260905200503 77 246 0.0 0.0 0.00 0.00 0.00 45 1014.8
20260905200001 77 261 0.0 0.0 0.00 0.00 0.00 44 1014.8
20260905195456 76 220 0.0 0.0 0.00 0.00 0.00 45 1014.8
20260905194952 76 256 0.0 0.0 0.00 0.00 0.00 47 1014.9
20260905194451 75 250 0.0 0.0 0.00 0.00 0.00 49 1014.8
20260905193946 73 249 0.0 0.0 0.00 0.00 0.00 49 1015.0
20260905193441 73 226 0.0 0.0 0.00 0.00 0.00 54 1014.9
20260905192936 73 283 0.0 0.0 0.00 0.00 0.00 54 1015.0
20260905192431 74 241 0.0 0.0 0.00 0.00 0.00 55 1015.1
20260905191926 73 219 0.0 0.0 0.00 0.00 0.00 56 1015.0
20260905191426 74 259 0.0 0.0 0.00 0.00 0.00 54 1015.2
20260905190925 73 246 0.0 0.0 0.00 0.00 0.00 59 1015.3
20260905190423 71 240 0.0 0.0 0.00 0.00 0.00 61 1015.1
20260905185922 70 245 0.0 0.0 0.00 0.00 0.00 63 1015.2
20260905185417 71 254 0.0 0.0 0.00 0.00 0.00 60 1015.3
20260905184916 70 252 0.0 0.0 0.00 0.00 0.00 63 1015.4
20260905184410 70 247 0.0 0.0 0.00 0.00 0.00 65 1015.3
20260905183909 69 257 0.0 0.0 0.00 0.00 0.00 64 1015.3
20260905183405 68 286 0.0 0.0 0.00 0.00 0.00 65 1015.3
20260905182859 69 265 0.0 0.0 0.00 0.00 0.00 65 1015.2
20260905182353 68 264 0.0 0.0 0.00 0.00 0.00 69 1015.2
20260905181849 68 262 0.0 0.0 0.00 0.00 0.00 66 1015.3
20260905181348 66 249 0.0 0.0 0.00 0.00 0.00 69 1015.2
20260905180847 66 279 0.0 0.0 0.00 0.00 0.00 70 1015.1
20260905180342 66 242 0.0 0.0 0.00 0.00 0.00 71 1015.0
20260905175837 65 262 0.0 0.0 0.00 0.00 0.00 72 1015.1
20260905175331 65 256 0.0 0.0 0.00 0.00 0.00 75 1015.2
20260905174826 64 259 0.0 0.0 0.00 0.00 0.00 80 1015.3
20260905174322 63 242 0.0 0.0 0.00 0.00 0.00 82 1015.4
20260905173818 64 267 0.0 0.0 0.00 0.00 0.00 81 1015.3
20260905173314 64 246 0.0 0.0 0.00 0.00 0.00 81 1015.3
20260905172814 62 247 0.0 0.0 0.00 0.00 0.00 84 1015.3
20260905172312 61 266 0.0 0.0 0.00 0.00 0.00 85 1015.1
20260905171808 61 252 0.0 0.0 0.00 0.00 0.00 85 1015.2
20260905171305 60 249 0.0 0.0 0.00 0.00 0.00 87 1015.2
20260905170801 60 252 0.0 0.0 0.00 0.00 0.00 87 1015.2
20260905170256 60 255 0.0 0.0 0.00 0.00 0.00 87 1015.2
20260905165755 60 246 0.0 0.0 0.00 0.00 0.00 89 1015.3
20260905165251 59 247 0.0 0.0 0.00 0.00 0.00 91 1015.1
20260905164745 59 246 0.0 0.0 0.00 0.00 0.00 90 1015.3
20260905164240 58 248 0.0 0.0 0.00 0.00 0.00 92 1015.1
20260905163736 58 246 0.0 0.0 0.00 0.00 0.00 92 1015.1